Temp
10 10 10 10 10 10 10 10 10 10 11 10 10 10 11 11 11 11 11 11 12 12 12 12 12 12 11 11 10 10 9 10 10 10 10 10 11 11 10 10 10 10 11 11 12
9 9 9 9 9 9 9 9 10 10 10 10 10 10 10 11 11 11 11 11 12 12 12 12 12 11 11 11 9 9 9 9 10 10 10 10 11 10 10 11 10 10 10 11 11
9 9 9 9 9 9 9 9 9 9 10 10 10 10 10 11 11 11 11 11 11 11 11 11 11 11 10 9 9 9 9 9 10 10 11 10 10 10 8 10 11 11 11 11 11
8 8 8 8 9 9 9 9 9 9 9 10 9 10 9 10 10 11 11 11 11 11 11 11 11 11 10 9 9 9 9 9 9 9 10 9 10 10 9 9 11 10 11 11 10
8 8 8 8 8 9 9 8 9 9 9 9 9 9 9 9 10 11 11 11 11 11 11 11 11 9 10 10 9 10 9 9 10 9 8 8 9 10 10 10 11 10 10 11 10
8 8 8 8 8 8 8 8 8 8 8 8 8 8 8 8 9 10 11 11 11 11 11 11 11 9 10 10 10 10 9 9 9 8 8 8 9 10 10 10 11 10 10 10 10
8 8 7 8 8 8 8 8 8 7 7 8 8 8 8 8 9 10 10 10 10 10 10 10 10 10 9 10 10 9 9 8 9 9 8 8 8 9 10 10 9 9 9 9 9
7 7 7 7 7 7 7 7 7 6 7 7 7 7 7 8 8 9 10 10 10 10 9 10 10 9 9 10 10 10 10 11 9 9 8 8 8 9 9 8 7 7 8 9 9
7 6 6 6 7 6 6 6 6 6 6 6 6 6 6 7 8 8 8 9 10 9 9 9 9 9 9 10 11 11 14 11 9 9 10 9 9 9 9 7 8 7 8 8 8
6 6 6 6 6 6 5 5 6 5 6 6 6 6 6 5 7 8 8 9 9 10 9 9 8 9 10 11 14 14 14 12 11 10 9 9 9 9 8 7 8 8 8 7 7
6 6 6 6 6 6 5 5 5 5 6 6 5 5 5 6 7 7 7 8 8 9 8 9 9 10 11 11 12 13 14 13 11 10 9 9 9 9 8 8 8 8 8 8 8
6 6 6 6 6 5 5 5 5 5 5 6 6 6 6 6 6 6 7 6 7 8 8 8 9 11 11 10 11 13 14 12 10 10 10 9 8 8 9 8 8 8 8 8 8
6 6 6 6 6 5 5 5 6 6 6 6 6 6 6 6 6 7 7 6 7 8 8 10 11 10 10 10 12 13 14 13 12 9 10 9 9 9 8 8 8 8 9 8 8
6 6 6 6 6 5 5 6 6 6 7 7 6 6 6 6 6 6 6 7 7 8 9 10 9 9 10 11 12 14 12 12 11 12 12 11 10 9 9 8 8 9 9 9 9
6 6 6 6 6 5 5 6 6 7 10 7 7 7 7 6 7 7 6 7 8 8 8 10 9 9 10 11 11 13 12 12 12 13 12 11 11 10 10 9 9 8 9 9 9
6 6 6 6 5 5 6 6 7 7 8 7 7 7 7 7 7 7 6 6 8 8 8 10 9 10 11 11 11 11 12 12 12 13 15 15 15 11 9 12 11 10 10 9 10
6 6 6 5 5 6 6 7 8 9 7 7 7 7 8 8 7 7 7 7 8 9 9 9 9 10 10 10 10 11 12 13 14 15 17 14 14 15 12 13 13 12 11 9 9
5 5 5 6 6 6 6 6 8 6 7 7 7 7 8 8 8 8 8 8 8 9 11 10 10 10 10 11 11 11 12 14 14 17 17 13 14 14 12 11 12 11 11 9 9
5 5 5 6 6 6 6 8 7 6 6 6 7 8 8 8 8 8 8 9 9 9 10 11 11 10 10 10 11 11 12 13 14 16 17 16 14 13 13 13 12 11 11 10 9
5 5 5 5 5 6 7 6 6 5 6 6 7 7 8 8 8 9 9 9 9 8 9 10 11 10 10 10 11 12 12 13 14 16 16 16 15 16 13 12 12 10 11 10 10
5 5 5 5 5 6 7 6 5 5 5 6 6 7 7 8 8 9 8 8 8 8 8 9 10 11 11 10 11 11 12 13 14 15 17 18 16 14 13 13 11 10 12 11 10
5 6 5 5 6 5 6 5 5 5 5 5 5 6 6 6 7 8 7 7 7 8 8 9 10 11 11 11 11 12 12 12 14 14 15 15 14 14 13 13 13 11 12 11 10
5 5 5 5 7 6 5 5 5 5 5 5 5 5 5 5 6 6 5 6 7 7 8 8 10 11 11 11 10 12 12 13 13 14 15 16 16 15 14 13 13 13 12 12 11
5 6 5 5 5 5 5 5 5 4 4 4 5 5 5 5 5 5 5 6 6 6 7 8 9 11 12 12 12 12 12 12 13 14 15 15 14 14 14 13 14 13 12 12 12
5 5 6 6 5 5 5 5 5 5 4 4 5 5 5 6 6 5 4 5 6 6 7 7 8 9 10 10 11 12 12 12 13 14 15 15 15 13 12 13 14 13 12 12 12
5 5 5 5 5 5 5 4 4 4 4 4 4 4 5 5 5 5 6 5 5 6 7 7 7 8 9 9 10 11 11 12 12 12 13 13 12 12 13 14 13 12 12 12 11
5 5 5 5 5 5 5 4 4 3 3 4 4 4 4 5 5 5 5 5 5 5 6 6 7 8 10 9 9 10 8 10 10 10 11 13 11 12 13 13 13 12 12 11 11
Height
3137 3136 3135 3134 3132 3131 3131 3130 3129 3130 3131 3133 3135 3137 3140 3142 3143 3145 3149 3150 3151 3154 3156 3160 3163 3166 3167 3168 3169 3168 3169 3168 3167 3163 3168 3175 3177 3181 3184 3187 3189 3191 3194 3196 3197
3136 3135 3133 3132 3130 3129 3128 3128 3127 3127 3127 3128 3131 3134 3137 3140 3142 3144 3144 3146 3149 3152 3155 3159 3162 3165 3167 3168 3169 3168 3168 3167 3166 3165 3167 3174 3178 3182 3185 3186 3190 3191 3193 3197 3200
3136 3134 3132 3130 3129 3128 3126 3126 3125 3125 3125 3124 3126 3131 3133 3137 3141 3141 3142 3144 3148 3151 3154 3157 3161 3164 3167 3169 3170 3169 3170 3167 3165 3166 3169 3173 3178 3183 3186 3188 3190 3192 3194 3198 3202
3135 3133 3131 3129 3127 3126 3125 3123 3123 3123 3122 3122 3123 3126 3130 3134 3141 3137 3140 3142 3146 3149 3152 3155 3159 3164 3168 3169 3169 3170 3169 3166 3162 3166 3169 3172 3179 3181 3186 3190 3191 3193 3198 3200 3203
3134 3132 3130 3128 3126 3125 3124 3122 3122 3121 3120 3121 3121 3122 3127 3132 3134 3135 3137 3140 3144 3147 3152 3156 3159 3164 3168 3170 3170 3172 3170 3168 3165 3169 3172 3175 3179 3183 3187 3189 3191 3193 3199 3202 3205
3133 3131 3129 3127 3125 3124 3123 3121 3120 3119 3119 3119 3119 3120 3124 3129 3131 3133 3136 3139 3142 3146 3151 3154 3159 3163 3168 3169 3171 3171 3171 3169 3169 3168 3172 3176 3180 3183 3187 3189 3191 3195 3200 3204 3207
3132 3130 3128 3127 3125 3124 3123 3121 3119 3118 3117 3117 3117 3118 3121 3125 3128 3131 3134 3137 3141 3145 3149 3152 3157 3161 3165 3169 3169 3170 3171 3171 3169 3168 3173 3176 3182 3184 3186 3190 3193 3197 3201 3205 3208
3131 3129 3127 3126 3125 3123 3122 3120 3119 3118 3117 3116 3115 3117 3119 3122 3125 3129 3131 3135 3139 3144 3146 3149 3155 3160 3163 3165 3168 3172 3172 3172 3169 3169 3174 3179 3182 3185 3187 3191 3195 3199 3202 3205 3208
3130 3128 3127 3125 3124 3122 3121 3120 3119 3117 3116 3115 3116 3117 3120 3121 3125 3128 3130 3134 3138 3142 3145 3148 3153 3160 3162 3166 3170 3170 3168 3170 3171 3173 3172 3175 3180 3184 3187 3192 3198 3201 3204 3206 3208
3129 3127 3126 3124 3123 3122 3121 3120 3118 3117 3116 3115 3116 3121 3121 3122 3124 3127 3131 3133 3138 3142 3147 3149 3153 3158 3162 3165 3165 3166 3167 3169 3168 3172 3177 3178 3180 3183 3185 3191 3199 3202 3205 3208 3210
3128 3126 3125 3124 3123 3122 3122 3121 3121 3119 3117 3116 3118 3118 3119 3121 3124 3127 3131 3134 3137 3143 3148 3149 3154 3154 3160 3163 3163 3164 3166 3166 3169 3169 3174 3177 3179 3181 3182 3189 3196 3200 3205 3209 3212
3127 3126 3125 3123 3122 3122 3121 3121 3120 3121 3119 3117 3117 3118 3119 3121 3125 3127 3132 3137 3139 3144 3148 3150 3151 3157 3161 3163 3164 3165 3166 3166 3169 3170 3174 3175 3178 3178 3180 3184 3194 3198 3203 3208 3212
3127 3126 3124 3123 3122 3122 3121 3122 3121 3119 3120 3121 3120 3120 3122 3124 3128 3128 3133 3137 3140 3145 3146 3150 3152 3155 3158 3160 3163 3164 3164 3166 3168 3171 3175 3176 3177 3177 3179 3184 3193 3199 3203 3206 3210
3126 3125 3124 3123 3124 3122 3122 3122 3121 3121 3122 3127 3126 3125 3124 3125 3129 3130 3133 3140 3140 3144 3147 3150 3149 3152 3156 3159 3162 3163 3165 3167 3169 3171 3171 3173 3177 3177 3177 3182 3189 3196 3200 3205 3210
3126 3125 3124 3122 3123 3123 3124 3122 3122 3122 3118 3129 3127 3126 3126 3129 3128 3130 3134 3138 3141 3143 3146 3148 3149 3151 3155 3159 3162 3163 3165 3168 3170 3169 3171 3173 3175 3176 3179 3182 3186 3191 3196 3203 3208
3126 3125 3124 3124 3124 3124 3123 3123 3123 3123 3124 3128 3128 3128 3128 3129 3130 3129 3133 3137 3140 3142 3144 3146 3148 3151 3155 3158 3161 3162 3166 3168 3170 3169 3167 3166 3167 3173 3173 3174 3181 3186 3191 3199 3205
3126 3126 3126 3125 3125 3124 3124 3124 3125 3122 3129 3130 3129 3128 3129 3129 3130 3130 3132 3136 3138 3141 3142 3145 3147 3150 3153 3157 3160 3162 3164 3165 3166 3166 3159 3165 3169 3167 3173 3173 3176 3179 3186 3193 3201
3127 3127 3126 3126 3125 3124 3125 3128 3127 3129 3129 3129 3128 3128 3128 3129 3129 3131 3133 3134 3136 3138 3138 3142 3146 3147 3149 3153 3156 3159 3161 3159 3160 3154 3155 3165 3165 3167 3169 3174 3175 3176 3182 3190 3198
3127 3128 3127 3127 3126 3125 3126 3128 3130 3130 3130 3129 3128 3127 3126 3128 3129 3131 3132 3133 3135 3137 3139 3139 3142 3144 3147 3151 3154 3157 3158 3161 3159 3153 3153 3155 3164 3164 3165 3167 3169 3173 3176 3182 3193
3129 3129 3129 3127 3127 3127 3130 3130 3131 3130 3129 3129 3128 3128 3125 3126 3128 3127 3129 3131 3133 3136 3138 3138 3140 3142 3145 3149 3151 3153 3158 3160 3157 3150 3154 3151 3158 3157 3160 3163 3165 3171 3174 3179 3187
3130 3132 3131 3129 3129 3131 3131 3131 3131 3130 3129 3131 3129 3128 3127 3127 3126 3125 3128 3131 3133 3135 3137 3138 3138 3139 3142 3142 3145 3151 3151 3154 3155 3154 3146 3146 3153 3157 3158 3162 3166 3170 3174 3179 3184
3131 3134 3132 3131 3134 3132 3133 3133 3132 3131 3130 3130 3129 3128 3128 3127 3127 3127 3130 3130 3129 3133 3136 3137 3136 3134 3138 3141 3143 3145 3148 3152 3151 3152 3153 3149 3150 3152 3155 3159 3164 3167 3171 3175 3181
3132 3133 3133 3133 3134 3133 3132 3132 3132 3132 3130 3130 3130 3128 3127 3127 3128 3128 3130 3129 3127 3131 3134 3135 3135 3134 3136 3141 3141 3141 3144 3146 3150 3151 3149 3151 3150 3153 3155 3158 3160 3163 3168 3174 3177
3132 3134 3133 3133 3133 3133 3133 3132 3132 3130 3130 3128 3129 3128 3128 3127 3126 3126 3129 3130 3128 3128 3129 3131 3133 3130 3129 3128 3133 3138 3141 3144 3145 3146 3146 3147 3150 3152 3153 3155 3156 3159 3164 3170 3174
3131 3132 3133 3134 3133 3132 3132 3131 3131 3130 3129 3128 3129 3129 3129 3128 3127 3128 3129 3130 3131 3129 3130 3131 3132 3132 3131 3131 3133 3135 3139 3142 3144 3145 3144 3144 3149 3154 3153 3154 3156 3156 3161 3166 3170
3129 3131 3131 3131 3131 3132 3131 3130 3129 3129 3128 3128 3129 3128 3128 3128 3127 3128 3128 3129 3128 3130 3132 3131 3132 3132 3132 3132 3134 3136 3138 3140 3142 3144 3145 3147 3149 3151 3151 3151 3154 3156 3159 3164 3167
3126 3128 3130 3130 3131 3132 3131 3130 3129 3128 3127 3126 3126 3128 3129 3127 3127 3127 3128 3128 3129 3130 3131 3132 3132 3132 3129 3134 3135 3137 3138 3140 3141 3142 3146 3149 3148 3149 3149 3150 3152 3154 3157 3161 3164
Wind_Speed
12 12 11 11 11 10 9 8 7 9 14 17 18 17 17 16 15 14 13 18 18 18 17 15 12 8 6 4 2 6 2 2 2 10 23 20 21 20 18 11 16 13 12 15 21
13 12 11 11 11 11 10 10 9 8 9 14 18 18 17 17 15 14 20 20 19 17 17 14 12 9 7 4 2 2 1 3 4 14 27 24 21 16 16 16 15 17 16 19 20
14 13 12 11 11 11 10 9 8 9 10 10 15 19 18 17 15 18 19 20 16 16 18 18 15 11 8 6 5 2 3 8 2 21 34 26 22 17 12 12 12 15 17 22 21
14 13 12 11 10 10 10 9 8 9 8 10 11 16 19 17 10 19 20 19 18 18 20 20 20 15 9 8 8 4 5 12 5 24 37 25 22 18 16 12 14 16 15 23 22
14 14 13 12 11 9 9 9 9 8 7 8 10 13 19 19 20 15 20 20 20 19 18 19 20 15 10 10 8 4 2 6 13 15 27 27 23 19 17 15 17 24 25 23 23
14 14 14 13 10 9 8 8 7 7 7 7 9 11 17 18 20 15 19 20 20 19 17 20 21 15 11 10 7 5 6 6 8 14 29 23 21 20 16 17 24 27 28 24 22
14 14 13 12 11 9 8 7 8 7 6 6 7 10 15 21 20 19 17 21 21 21 19 21 23 18 11 10 9 7 7 5 3 10 29 20 21 13 20 25 27 28 26 25 21
14 14 12 11 10 9 7 7 8 8 7 5 5 9 14 20 20 20 17 21 24 23 25 22 24 19 16 15 11 8 6 6 5 17 23 19 24 19 25 27 26 26 28 26 23
12 13 11 10 9 8 8 8 8 6 8 5 1 7 9 18 18 21 17 19 24 26 25 24 25 19 14 13 12 13 8 10 12 14 29 23 18 24 28 28 24 25 26 25 25
12 11 10 8 8 8 8 9 8 9 9 3 4 8 9 12 18 21 17 19 24 26 25 22 20 18 16 18 18 14 10 13 14 24 21 10 15 28 28 30 25 25 25 24 22
10 9 9 9 7 7 8 8 13 13 9 3 6 8 10 14 17 21 19 18 22 22 17 21 19 27 22 17 6 8 10 9 11 20 18 15 11 11 22 37 30 27 26 23 22
9 9 9 9 7 7 9 9 12 10 9 5 4 6 6 14 17 19 19 13 18 18 17 17 22 20 19 15 8 9 10 10 9 15 11 15 6 10 17 40 31 28 27 24 22
8 9 8 8 6 7 8 8 9 15 14 11 9 7 5 9 11 18 18 12 15 18 20 18 13 19 19 16 12 9 12 13 9 14 7 12 4 10 18 37 28 27 25 25 22
6 7 6 5 5 7 9 7 7 10 6 7 5 4 4 7 7 14 14 9 12 17 16 16 11 20 19 18 15 12 6 10 12 14 7 14 4 9 24 30 32 28 27 27 25
6 6 5 3 5 9 7 5 5 4 1 3 4 5 6 4 6 15 13 9 11 14 16 13 17 19 22 20 15 6 9 9 13 5 9 9 5 7 16 23 30 31 29 27 25
4 7 6 5 6 5 6 6 6 1 5 2 3 2 2 5 6 10 15 12 9 11 16 6 15 15 20 18 16 9 11 10 8 6 10 11 9 15 24 22 23 31 33 30 27
3 6 7 7 5 3 4 6 2 7 2 3 1 1 3 5 7 12 18 15 10 13 18 11 14 15 19 20 17 16 18 11 9 8 4 8 10 6 19 21 12 21 28 31 28
5 4 4 5 5 1 5 6 5 3 3 4 4 2 5 7 6 11 14 16 12 14 16 20 18 20 15 20 22 23 25 14 10 10 11 6 8 5 15 21 20 18 25 33 29
6 1 3 4 7 4 6 2 3 1 3 5 3 2 5 9 6 10 13 15 13 11 11 18 16 18 16 18 18 24 28 22 18 10 14 12 9 8 12 18 21 21 29 34 30
9 7 7 5 7 9 3 5 3 2 1 3 3 2 4 8 11 11 12 12 13 13 10 6 15 15 20 18 20 18 25 22 16 10 12 10 13 4 11 12 23 23 22 31 33
9 5 4 6 8 7 6 4 3 2 1 1 4 3 2 4 10 11 5 3 12 14 11 8 11 17 18 25 23 23 22 27 22 23 10 10 12 11 9 16 20 23 23 24 32
8 1 2 1 3 4 3 4 7 2 3 2 4 4 1 2 7 7 4 2 16 12 11 12 11 11 22 18 21 25 23 25 22 15 19 14 5 13 15 18 21 24 25 25 28
4 3 2 2 1 0 1 2 4 4 3 2 2 4 3 4 5 6 6 6 11 12 9 11 12 14 11 14 19 21 25 24 28 25 22 16 8 8 13 17 19 23 28 18 26
5 1 3 1 0 2 0 3 3 6 4 3 4 3 2 4 5 13 4 4 2 6 12 12 8 15 7 21 22 23 20 23 19 24 22 19 7 3 9 14 20 23 27 27 23
7 7 4 1 3 0 1 2 4 4 3 2 2 3 1 1 8 13 10 5 2 2 4 5 6 7 2 5 11 16 21 21 21 23 18 14 20 12 12 10 12 19 25 31 28
9 7 6 6 3 1 4 3 2 2 3 1 1 3 3 4 3 5 18 6 9 3 0 5 2 8 6 5 8 9 10 15 15 14 15 11 4 9 14 15 13 16 19 22 27
11 8 5 6 3 2 3 2 0 2 4 3 5 1 1 3 5 5 8 6 8 8 8 4 1 5 11 5 10 11 6 6 7 7 11 15 9 16 15 11 17 18 17 18 23
Wind_Direction
338 332 328 322 314 307 301 291 274 262 253 241 235 233 231 229 217 205 202 210 209 206 205 204 199 195 190 205 251 327 218 261 259 222 192 180 177 183 187 187 194 201 191 182 161
342 338 331 325 320 312 305 297 283 264 252 244 236 228 228 227 223 204 204 210 209 205 202 199 195 192 194 190 234 132 20 330 181 169 188 172 175 185 179 193 207 192 186 177 165
342 339 335 332 326 318 310 303 292 279 260 245 233 228 221 221 221 215 206 209 208 201 194 190 183 183 183 175 187 157 53 20 228 163 167 182 177 177 176 193 208 185 182 168 159
341 343 340 337 332 325 315 306 299 290 268 252 236 221 219 209 195 214 210 206 198 197 199 189 181 180 181 171 163 134 40 356 203 171 177 178 183 186 165 177 172 183 173 164 156
343 342 342 343 342 338 325 319 311 296 279 255 237 218 213 207 205 208 206 202 195 194 200 198 184 180 184 178 169 127 30 48 93 159 170 181 178 170 168 166 167 166 166 162 154
342 344 346 348 352 352 346 332 332 313 293 267 242 219 206 200 203 199 202 200 194 187 190 196 188 180 195 186 176 173 131 109 148 176 167 166 162 166 171 168 151 160 159 162 154
345 347 352 349 356 5 1 360 355 347 306 270 236 220 203 200 201 196 192 196 191 182 182 194 187 173 186 189 194 165 149 156 162 147 167 169 170 161 160 155 153 159 159 155 149
348 352 356 353 359 5 14 14 11 8 357 312 231 208 193 195 195 194 184 192 189 186 178 190 185 184 156 199 184 172 176 185 175 185 172 169 176 166 156 156 159 162 159 156 147
352 356 357 354 356 2 13 12 1 359 343 347 204 175 182 191 190 191 182 183 190 185 188 185 182 183 193 175 188 198 198 179 141 153 165 178 167 178 163 162 168 166 166 160 153
358 360 354 351 354 7 33 28 38 10 15 26 122 128 181 185 187 186 183 176 187 189 189 186 183 190 182 189 200 199 206 186 171 161 163 157 163 186 177 164 172 164 168 167 161
1 358 355 351 353 8 40 41 29 11 35 67 170 163 193 190 179 181 181 180 179 194 186 192 190 196 196 192 246 201 209 182 180 171 161 164 172 166 192 173 175 173 173 173 168
359 1 357 353 359 13 37 63 52 38 50 33 172 186 189 182 182 185 185 179 182 185 187 195 204 200 199 203 202 208 199 149 162 168 159 202 195 203 180 183 181 185 179 178 180
3 5 360 359 13 30 50 70 86 81 79 65 78 101 149 162 177 194 181 186 187 191 197 203 213 200 198 200 191 189 197 179 182 175 185 175 166 191 173 177 184 190 189 184 186
16 10 2 8 28 63 78 75 83 97 111 59 70 79 107 139 171 191 181 173 186 200 199 210 205 199 195 200 188 188 182 174 169 165 188 190 132 182 177 177 181 189 190 193 194
26 15 6 20 72 91 71 69 80 102 310 55 59 116 121 124 199 200 184 196 200 193 191 207 207 189 196 199 195 176 161 163 169 203 154 181 136 158 177 192 194 188 191 193 195
35 37 40 66 98 97 79 69 75 253 80 82 87 45 135 181 158 191 187 181 195 200 203 240 199 194 197 196 197 205 166 163 178 209 228 192 239 188 183 212 204 203 201 193 195
95 65 65 58 51 109 74 64 284 45 60 26 344 210 156 172 178 174 181 186 185 188 194 199 192 189 189 198 199 186 185 178 200 203 250 179 212 99 200 188 208 208 203 197 194
120 80 42 31 18 77 66 47 57 59 34 347 342 248 203 180 188 184 185 194 205 204 197 197 187 197 195 199 202 202 202 206 206 210 212 164 221 212 196 211 226 214 205 197 195
135 120 358 41 41 89 81 7 54 76 4 335 305 268 193 197 181 180 195 203 207 194 218 207 218 205 208 200 195 204 216 219 263 243 255 180 208 246 222 205 207 206 204 192 192
133 95 68 66 66 79 70 116 86 116 31 2 339 305 263 200 205 204 188 216 214 213 208 215 217 213 209 205 216 209 207 210 227 217 231 171 224 152 193 191 194 187 189 195 196
164 94 113 76 74 70 95 91 57 351 12 1 355 316 252 214 227 197 182 213 205 208 207 208 221 191 200 206 204 203 210 216 228 235 259 229 204 205 205 184 182 191 202 201 195
151 140 203 168 54 84 81 64 34 10 357 339 3 1 252 178 201 210 212 232 211 202 204 208 220 198 206 206 212 215 209 208 222 198 242 299 97 216 213 199 196 196 193 197 213
169 171 185 139 305 1 15 10 25 41 7 10 352 10 1 214 212 163 172 306 210 203 210 207 214 205 181 208 213 209 211 223 218 232 224 236 221 230 234 203 203 205 202 205 198
187 203 280 351 240 152 333 332 325 323 345 357 1 33 39 207 216 191 158 15 82 207 215 192 222 239 239 200 199 204 209 211 220 225 232 216 226 264 252 220 218 203 199 197 200
202 218 198 219 325 324 359 319 326 311 342 29 13 26 160 143 162 165 193 281 63 132 183 174 222 221 148 118 175 199 206 207 217 228 250 238 223 237 256 238 237 213 196 198 198
210 214 246 260 263 332 325 323 32 25 68 337 83 56 80 115 144 207 206 277 223 351 50 58 219 156 140 134 147 159 184 202 212 222 236 238 206 224 238 249 221 204 197 197 193
219 224 204 235 230 328 283 220 200 53 17 304 244 197 134 166 142 157 188 204 212 247 272 184 330 203 155 160 171 159 115 158 200 190 208 227 218 238 247 235 216 209 202 200 204